Location: Newark
(7.0858°N, 171.3717°E)
Time: 06:15:03
(UTC+00:00)

Courier 1B Rocket - Pass Details

Date: 27 November 2020
Orbit: 920 x 1202 km, 28.2° (Epoch: 20 January)

Event Time Altitude Azimuth Distance (km) Brightness Sun altitude
Rises 22:03:17 0° 314° (NW) 4,000 7.8 45.6°
Reaches altitude 10° 22:07:30 10° 335° (NNW) 2,987 7.3 46.4°
Maximum altitude 22:11:43 16° 11° (N) 2,512 7.1 47.2°
Drops below altitude 10° 22:15:47 10° 46° (NE) 2,865 7.6 47.9°
Sets 22:19:42 0° 68° (ENE) 3,757 8.3 48.6°
